TimeEDT,TemperatureF,Dew PointF,Humidity,Sea Level PressureIn,VisibilityMPH,Wind Direction,Wind SpeedMPH,Gust SpeedMPH,PrecipitationIn,Events,Conditions,WindDirDegrees,DateUTC
12:51 AM,52.0,51.1,97,30.35,10.0,Calm,Calm,-,N/A,,Clear,0,2013-08-18 04:51:00
12:59 AM,51.8,50.0,94,30.34,10.0,Calm,Calm,-,N/A,,Scattered Clouds,0,2013-08-18 04:59:00
1:07 AM,51.8,51.8,100,30.34,2.0,Calm,Calm,-,N/A,,Mostly Cloudy,0,2013-08-18 05:07:00
1:11 AM,51.8,51.8,100,30.34,1.2,South,3.5,-,N/A,,Mostly Cloudy,180,2013-08-18 05:11:00
1:13 AM,51.8,51.8,100,30.34,0.8,South,3.5,-,N/A,,Mist,180,2013-08-18 05:13:00
1:51 AM,52.0,51.1,97,30.34,0.5,Calm,Calm,-,N/A,Fog,Fog,0,2013-08-18 05:51:00
1:57 AM,51.8,51.8,100,30.34,1.5,Calm,Calm,-,N/A,,Mostly Cloudy,0,2013-08-18 05:57:00
2:03 AM,50.0,50.0,100,30.33,1.0,Calm,Calm,-,N/A,,Overcast,0,2013-08-18 06:03:00
2:09 AM,51.8,51.8,100,30.34,0.8,Calm,Calm,-,N/A,,Overcast,0,2013-08-18 06:09:00
2:12 AM,51.8,51.8,100,30.34,1.2,Calm,Calm,-,N/A,,Mostly Cloudy,0,2013-08-18 06:12:00
2:19 AM,51.8,51.8,100,30.33,1.5,Calm,Calm,-,N/A,,Mostly Cloudy,0,2013-08-18 06:19:00
2:22 AM,51.8,51.8,100,30.33,2.0,Calm,Calm,-,N/A,,Mostly Cloudy,0,2013-08-18 06:22:00
2:35 AM,51.8,51.8,100,30.33,1.0,Calm,Calm,-,N/A,,Overcast,0,2013-08-18 06:35:00
2:42 AM,51.8,51.8,100,30.33,0.2,Calm,Calm,-,N/A,Fog,Fog,0,2013-08-18 06:42:00
2:51 AM,51.1,51.1,100,30.33,0.2,Calm,Calm,-,N/A,Fog,Fog,0,2013-08-18 06:51:00
3:30 AM,51.8,51.8,100,30.33,1.5,Calm,Calm,-,N/A,,Overcast,0,2013-08-18 07:30:00
3:32 AM,51.8,51.8,100,30.32,3.0,Calm,Calm,-,N/A,,Overcast,0,2013-08-18 07:32:00
3:37 AM,51.8,51.8,100,30.33,1.8,Calm,Calm,-,N/A,,Overcast,0,2013-08-18 07:37:00
3:39 AM,51.8,51.8,100,30.33,1.0,Calm,Calm,-,N/A,,Mist,0,2013-08-18 07:39:00
3:46 AM,51.8,51.8,100,30.33,0.5,Calm,Calm,-,N/A,Fog,Fog,0,2013-08-18 07:46:00
3:51 AM,51.1,50.0,96,30.33,0.8,Calm,Calm,-,N/A,,Mist,0,2013-08-18 07:51:00
3:56 AM,51.8,51.8,100,30.32,1.2,Calm,Calm,-,N/A,,Overcast,0,2013-08-18 07:56:00
4:16 AM,50.0,50.0,100,30.32,2.0,Calm,Calm,-,N/A,,Overcast,0,2013-08-18 08:16:00
4:36 AM,50.0,50.0,100,30.32,1.0,Calm,Calm,-,N/A,,Mist,0,2013-08-18 08:36:00
4:44 AM,50.0,50.0,100,30.33,0.5,Calm,Calm,-,N/A,Fog,Fog,0,2013-08-18 08:44:00
4:51 AM,50.0,50.0,100,30.33,0.2,Calm,Calm,-,N/A,Fog,Fog,0,2013-08-18 08:51:00
5:51 AM,50.0,50.0,100,30.33,0.2,Calm,Calm,-,0.01,Fog,Fog,0,2013-08-18 09:51:00
6:08 AM,50.0,50.0,100,30.33,1.2,Calm,Calm,-,N/A,,Overcast,0,2013-08-18 10:08:00
6:11 AM,50.0,50.0,100,30.33,2.0,Calm,Calm,-,N/A,,Overcast,0,2013-08-18 10:11:00
6:17 AM,50.0,50.0,100,30.33,1.2,Calm,Calm,-,N/A,,Overcast,0,2013-08-18 10:17:00
6:20 AM,50.0,50.0,100,30.33,0.8,Calm,Calm,-,N/A,,Mist,0,2013-08-18 10:20:00
6:51 AM,50.0,50.0,100,30.34,0.2,Calm,Calm,-,N/A,Fog,Fog,0,2013-08-18 10:51:00
7:51 AM,51.1,51.1,100,30.34,0.2,Calm,Calm,-,N/A,Fog,Fog,0,2013-08-18 11:51:00
8:37 AM,53.6,53.6,100,30.33,1.2,Calm,Calm,-,N/A,,Overcast,0,2013-08-18 12:37:00
8:51 AM,53.1,53.1,100,30.34,4.0,Calm,Calm,-,N/A,,Overcast,0,2013-08-18 12:51:00
9:23 AM,55.4,53.6,94,30.33,10.0,Calm,Calm,-,N/A,,Scattered Clouds,0,2013-08-18 13:23:00
9:51 AM,57.0,55.0,93,30.34,10.0,Calm,Calm,-,N/A,,Clear,0,2013-08-18 13:51:00
10:51 AM,64.0,57.9,80,30.33,10.0,Calm,Calm,-,N/A,,Clear,0,2013-08-18 14:51:00
11:51 AM,69.1,57.9,68,30.31,10.0,Calm,Calm,-,N/A,,Clear,0,2013-08-18 15:51:00
12:51 PM,72.0,54.0,53,30.28,10.0,Variable,3.5,-,N/A,,Clear,0,2013-08-18 16:51:00
1:51 PM,73.0,53.1,49,30.26,10.0,Calm,Calm,-,N/A,,Clear,0,2013-08-18 17:51:00
2:51 PM,75.0,53.1,46,30.23,10.0,Variable,3.5,-,N/A,,Clear,0,2013-08-18 18:51:00
3:51 PM,75.0,54.0,48,30.22,10.0,West,4.6,-,N/A,,Mostly Cloudy,280,2013-08-18 19:51:00
4:51 PM,73.9,48.9,41,30.20,10.0,SW,5.8,-,N/A,,Clear,230,2013-08-18 20:51:00
5:51 PM,71.1,53.1,53,30.18,10.0,SSW,3.5,-,N/A,,Clear,200,2013-08-18 21:51:00
6:51 PM,70.0,55.0,59,30.17,10.0,SSW,3.5,-,N/A,,Clear,200,2013-08-18 22:51:00
7:51 PM,66.0,55.9,70,30.17,10.0,SSW,3.5,-,N/A,,Clear,200,2013-08-18 23:51:00
8:51 PM,64.9,55.0,70,30.17,10.0,SSW,4.6,-,N/A,,Clear,210,2013-08-19 00:51:00
9:51 PM,60.1,54.0,80,30.16,10.0,Calm,Calm,-,N/A,,Clear,0,2013-08-19 01:51:00
10:51 PM,55.9,52.0,87,30.15,10.0,Calm,Calm,-,N/A,,Clear,0,2013-08-19 02:51:00
11:51 PM,55.9,54.0,93,30.14,9.0,Calm,Calm,-,N/A,,Clear,0,2013-08-19 03:51:00